Location: Ay?beleni
(36.6500°N, 30.3000°E)
Time: 04:50:16
(UTC+00:00)

Okean 1-7 Rocket - Pass Details

Date: 16 October 2021
Orbit: 617 x 648 km, 82.5° (Epoch: 08 December)

Event Time Altitude Azimuth Distance (km) Brightness Sun altitude
Rises 16:40:23 0° 2° (N) 2,898 7.0 -16.7°
Reaches altitude 10° 16:42:45 10° 10° (N) 1,991 6.1 -17.1°
Maximum altitude 16:46:51 38° 79° (E) 958 4.0 -18.0°
Enters shadow 16:47:06 37° 87° (E) 964 4.0 -18.0°
